Regional Weather Roundup
Issued by NWS Charleston, WV

Home | Current Version | Previous Version | Text Only | Print | Product List | Glossary Off
Versions: 1 2 3 4 5 6 7 8 9 10 11 12 13 14 15 16 17 18 19 20 21 22 23 24 25 26 27 28 29 30 31 32 33 34 35 36 37 38 39 40 41 42 43 44 45 46 47 48 49 50

443
ASUS41 KRLX 261310
RWRRLX
West Virginia Regional Weather Roundup
National Weather Service Charleston WV
900 AM EDT THU MAY 26 2016

Note: "fair" indicates few or no clouds below 12,000 feet with no
significant weather and/or obstructions to visibility.

WVZ003-261400-
Northern Panhandle of West Virginia

CITY           SKY/WX    TMP DP  RH WIND       PRES   REMARKS
WHEELING         N/A     66  60  81 S10       30.12R
$$

WVZ009-261400-
Northwest West Virginia

CITY           SKY/WX    TMP DP  RH WIND       PRES   REMARKS
PARKERSBURG    CLOUDY    68  65  90 SE5       30.14F
$$

WVZ006-261400-
Western West Virginia

CITY           SKY/WX    TMP DP  RH WIND       PRES   REMARKS
HUNTINGTON       N/A     70  65  84 SW6       30.12F
$$

WVZ015-261400-
West Central West Virginia

CITY           SKY/WX    TMP DP  RH WIND       PRES   REMARKS
CHARLESTON     PTSUNNY   69  63  81 CALM      30.13S
$$

WVZ022-031-261400-
North Central West Virginia

CITY           SKY/WX    TMP DP  RH WIND       PRES   REMARKS
CLARKSBURG     CLOUDY    67  60  78 W3        30.17R
MORGANTOWN     PTSUNNY   69  56  62 S5        30.17R
$$

WVZ025-035-042-045-261400-
Southern West Virginia

CITY           SKY/WX    TMP DP  RH WIND       PRES   REMARKS
BECKLEY        CLOUDY    68  58  70 SE5       30.22F
LOGAN          PTSUNNY   68  63  83 CALM      30.17S
BLUEFIELD      CLOUDY    67  57  70 CALM      30.24F
LEWISBURG      CLOUDY    61  58  90 CALM      30.24F
$$

WVZ047-261400-
Northern Mountains of West Virginia

CITY           SKY/WX    TMP DP  RH WIND       PRES   REMARKS
ELKINS           N/A     62  57  83 CALM      30.21S
$$

WVZ052-261400-
Eastern Panhandle of West Virginia

CITY           SKY/WX    TMP DP  RH WIND       PRES   REMARKS
MARTINSBURG      N/A     68  59  73 CALM      30.13S
PETERSBURG     PTSUNNY   63  59  88 CALM      30.18S
$$




USA.gov is the U.S. government's official web portal to all federal, state and local government web resources and services.